Regional Weather Roundup
Issued by NWS

Home | Current Version | Previous Version | Text Only | Print | Product List | Glossary Off
Versions: 1 2 3 4 5 6 7 8 9 10 11 12 13 14 15 16 17 18 19 20 21 22 23 24 25 26 27 28

000
ASUS45 KSLC 201710
RWRUT

UTAH REGIONAL WEATHER ROUNDUP
NATIONAL WEATHER SERVICE SALT LAKE CITY UT
1100 AM MDT SUN AUG 20 2017

UTZ001>011-023>025-201800-

NORTHERN UTAH

CITY           SKY/WX    TMP DP  RH WIND       PRES   REMARKS
BRIGHAM CITY   SUNNY     79  35  20 CALM      30.08R
HILL AFB       SUNNY     80  42  25 S7        30.10R
LOGAN          SUNNY     74  37  26 NW6       30.10S
OGDEN          MOSUNNY   81  42  25 SE7       30.07R
SALT LAKE CITY MOSUNNY   84  44  24 E3        30.05S
TOOELE VALLEY  MOSUNNY   82  46  28 N7        30.06S
WENDOVER       SUNNY     82  33  17 VRB3      30.07R
HEBER CITY     SUNNY     73  36  25 CALM      30.16S
WEST JORDAN    SUNNY     83  53  34 SE13      30.09S

$$

UTZ011>015-024>027-201800-

CENTRAL/NORTHEAST UTAH

CITY           SKY/WX    TMP DP  RH WIND       PRES   REMARKS
PROVO AIRPORT  SUNNY     82  47  29 VRB5      30.11R
MOAB/CANYONLAN MOSUNNY   85  35  16 CALM      30.07R
DELTA          SUNNY     84  32  15 SW9G18    30.11S
PRICE          SUNNY     79  40  24 VRB3      30.18S
ROOSEVELT      SUNNY     77  41  27 NE6       30.17S
VERNAL         SUNNY     76  41  28 SE5       30.15F

$$

UTZ013>016-019>022-027-201800-

SOUTHERN UTAH

CITY           SKY/WX    TMP DP  RH WIND       PRES   REMARKS
BRYCE CANYON   MOSUNNY   71  44  37 W3        30.34S
CEDAR CITY     MOSUNNY   80  41  24 VRB6      30.18F
MILFORD        MOSUNNY   84  36  18 S13       30.14S
ST GEORGE      SUNNY     83  44  25 SW3       30.02S
HANKSVILLE     MOSUNNY   84  34  16 CALM      30.09S
BLANDING       MOSUNNY   81  40  23 SW3       30.25S

$$

REGIONAL REPORTS     COLORADO/ARIZONA

CITY           SKY/WX    TMP DP  RH WIND       PRES   REMARKS
CRAIG, CO      SUNNY     79  37  22 VRB3      30.21F
GRAND JUNCTION SUNNY     79  39  23 S6        30.11F
RIFLE, CO      SUNNY     74  39  28 NW5       30.17F
MONTROSE, CO   SUNNY     75  42  30 N6        30.19S
CORTEZ, CO     CLOUDY    81  42  25 W5        30.17F
COLORADO CITY    N/A     86  43  22 CALM      30.18S
PAGE, AZ       MOSUNNY   90  36  14 NW13G18   30.07S
GRAND CANYON   PTSUNNY   77  42  28 MISG      30.28S
KINGMAN, AZ    SUNNY     88  46  23 VRB3      30.05S
FLAGSTAFF, AZ  PTSUNNY   70  48  45 VRB5      30.31S

$$

REGIONAL REPORTS    NEVADA/IDAHO/WYOMING

CITY           SKY/WX    TMP DP  RH WIND       PRES   REMARKS
LAS VEGAS, NV  MOSUNNY   93  47  20 E9        29.93S
ELY, NY        SUNNY     78  31  17 VRB5      30.19S
ELKO, NV       MOSUNNY   78  28  16 NE3       30.12S
POCATELLO, ID  SUNNY     71  37  28 SW10      30.13F
BURLEY, ID     SUNNY     70  43  37 W6        30.11S
FORT BRIDGER,    N/A     80  32  17 W12       30.27S
EVANSTON, WY   SUNNY     77  37  23 W9        30.25S
ROCK SPRINGS,  SUNNY     75  33  21 CALM      30.23S

$$




USA.gov is the U.S. government's official web portal to all federal, state and local government web resources and services.